www.pogodaiklimat.ru

Погода и климат >> Архив погоды >> Буркина-Фасо >> Ouahigouya


ПОГОДА в Ouahigouya

  • Прогноз погоды в Ouahigouya
  • Монитор погоды в Ouahigouya
  • Климат города

АРХИВ ПОГОДЫ в Ouahigouya

Время (UTC), дата Ветер
(напр.,м/с)
 
Видим.   Явления Облачность Т
(С)
Тd
(С)
f
(%)
Тe
(С)
Тes
(С)
Комфортность P
(гПа)
Po
(гПа)
Тmin
(С)
Tmax
(С)
R
(мм)
R24
(мм)
S
(см)
00 12.01 С 1 8000 м пыль 9/0
[Ac trans Ci sp]
+19.7 -2.4 22 +21 +21 комфорт 1013.9 976.0
03 12.01 С 2 8000 м пыль 9/0
[Ci sp]
+18.0 -1.9 26 +19 +19 1012.6 974.8
06 12.01 С 1 8000 м пыль 9/0
[Ci sp]
+15.7 +1.8 39 +17 +17 1012.9 974.8 +15.7
09 12.01 СВ 2 8000 м пыль 9/0
[Ci sp]
+23.3 -3.7 16 +21 +26 комфорт 1014.6 976.6
12 12.01 В 4 8000 м пыль 9/0
[Ci sp]
+30.1 -9.1 7 +26 +34 жарко 1013.9 976.1
15 12.01 В 3 8000 м пыль 9/0
[Ci sp]
+32.0 -7.7 7 +28 +33 жарко 1011.5 973.8
18 12.01 В 1 8000 м пыль 9/0
[Ci sp]
+29.0 -4.3 11 +26 +26 жарко 1012.3 974.2 +32.5
21 12.01 СВ 2 10 км 9/0
[Ci sp]
+23.5 -2.3 18 +22 +22 комфорт 1013.6 975.6
00 13.01 В 1 10 км 9/0
[Ci sp]
+20.2 -0.9 24 +21 +21 комфорт 1013.4 975.7
03 13.01 В 2 10 км 9/0
[Ci sp]
+17.7 -1.3 27 +18 +18 1012.2 974.4
06 13.01 В 1 10 км 9/0
[Ci sp]
+16.0 -3.5 26 +17 +17 1012.9 974.8 +16.0
09 13.01 В 1 10 км 9/0
[Ci sp]
+22.8 -3.5 17 +21 +27 комфорт 1014.7 976.6
12 13.01 В 4 10 км 9/0
[Ci sp]
+30.1 -9.9 7 +26 +34 жарко 1013.7 975.9
15 13.01 СВ 4 10 км 6/0
[Ci sp]
+31.6 -12.0 5 +27 +32 жарко 1010.5 973.0
18 13.01 В 2 10 км 6/0
[Ci sp]
+29.0 -7.2 9 +25 +25 комфорт 1011.7 973.7 +32.1
21 13.01 В 1 10 км 6/0
[Ci sp]
+23.0 -3.0 17 +21 +21 комфорт 1013.2 975.2
00 14.01 СВ 1 10 км 6/0
[Ci sp]
+19.6 -3.0 21 +21 +21 комфорт 1013.3 975.5
03 14.01 В 2 10 км 6/0
[Ci sp]
+17.3 -2.1 27 +18 +18 1011.9 974.1
06 14.01 В 2 10 км 6/0
[Ci sp]
+14.8 -3.4 28 +15 +15 1012.4 974.3 +14.6
09 14.01 ЮВ 3 10 км 9/0
[Ci sp]
+23.6 -6.5 13 +22 +26 комфорт 1013.9 975.9
12 14.01 ЮВ 3 10 км 9/0
[Ci sp]
+29.9 -10.0 7 +26 +36 жарко 1012.8 975.1
15 14.01 ЮВ 3 10 км 9/0
[Ci sp]
+31.9 -10.5 6 +28 +33 жарко 1010.4 972.7
18 14.01 В 1 10 км 9/0
[Ci sp]
+29.2 -2.7 12 +26 +26 жарко 1011.1 973.0 +32.5
21 14.01 СВ 1 10 км 9/0
[Ci sp]
+22.2 +0.2 23 +22 +22 комфорт 1013.0 974.9
00 15.01 В 1 10 км 9/0
[Ci sp]
+19.5 -0.4 26 +21 +21 комфорт 1012.7 974.9
03 15.01 В 1 10 км 9/0
[Ci sp]
+16.7 -1.3 29 +18 +18 1011.5 973.7
06 15.01 В 1 10 км 9/0
[Ci sp]
+14.5 -2.0 32 +15 +15 1011.9 973.8 +14.5
09 15.01 В 1 8000 м пыль 9/0
[Ci sp]
+23.0 -7.2 13 +21 +27 комфорт 1013.9 975.8
12 15.01 В 2 8000 м пыль 6/0
[Ci sp]
+29.5 -11.9 6 +25 +39 комфорт 1012.9 975.1
15 15.01 ЮВ 1 10 км 9/0
[Ci sp]
+31.6 -8.7 7 +27 +35 жарко 1009.7 972.0
18 15.01 В 1 10 км 9/0
[Ci sp]
+28.9 +0.6 16 +26 +26 жарко 1010.5 972.4 +32.4
21 15.01 СВ 1 10 км 9/0
[Ci sp]
+23.2 -1.7 19 +22 +22 комфорт 1012.3 974.4
00 16.01 С 2 10 км 9/0
[Ci sp]
+20.7 -2.7 21 +21 +21 комфорт 1012.4 974.7
03 16.01 В 1 10 км 9/0
[Ci sp]
+18.0 -2.3 25 +19 +19 1010.7 973.0
06 16.01 В 2 10 км 9/0
[Ci sp]
+17.0 -3.1 25 +17 +17 1011.2 973.3 +17.0
09 16.01 В 3 8000 м пыль 9/0
[Ci sp]
+22.4 -6.1 14 +21 +25 комфорт 1013.7 975.6
12 16.01 ЮВ 3 6000 м пыль 9/0
[Ci sp]
+30.5 -5.6 9 +27 +37 жарко 1012.1 974.4
15 16.01 ЮВ 2 6000 м пыль 9/0
[Ci sp]
+33.0 -3.0 10 +29 +35 жарко 1009.6 972.1
18 16.01 В 1 3000 м пыль 9/0
[Ci sp]
+29.8 +2.2 17 +27 +27 жарко 1010.5 972.6 +33.9
21 16.01 В 3 6000 м пыль 9/0
[Ci sp]
+26.0 -0.6 17 +24 +24 комфорт 1012.6 974.8
00 17.01 ЮВ 3 6000 м пыль 9/0
[Ci sp]
+23.8 -0.7 20 +23 +23 комфорт 1012.1 974.6
03 17.01 В 3 6000 м пыль 9/0
[Ci sp]
+21.1 +0.5 25 +21 +21 комфорт 1011.0 973.6
06 17.01 В 1 6000 м пыль 9/0
[Ci sp]
+20.0 -1.3 24 +21 +21 комфорт 1012.0 974.2 +20.0
09 17.01 ЮВ 3 2000 м пыль 9/0
[Ci sp]
+24.0 -4.3 15 +22 +26 комфорт 1013.2 975.4
12 17.01 ЮВ 1 2000 м пыль 9/0
[Ci sp]
+30.5 -5.0 10 +27 +42 жарко 1011.5 974.0
15 17.01 ЮВ 3 2000 м пыль 9/0
[Ci sp]
+33.0 -5.2 8 +29 +34 жарко 1009.2 971.8
18 17.01 В 1 2000 м пыль 9/0
[Ci sp]
+30.0 +1.2 16 +27 +27 жарко 1010.3 972.6 +33.5
21 17.01 В 2 2000 м пыль 9/0
[Ci sp]
+25.2 +0.8 20 +24 +24 комфорт 1012.1 974.3
00 18.01 В 2 2000 м пыль 9/0
[Ci sp]
+22.9 -0.3 21 +22 +22 комфорт 1012.2 974.7
03 18.01 СВ 2 2000 м пыль 9/0
[Ci sp]
+20.5 -2.7 21 +21 +21 комфорт 1011.1 973.7
06 18.01 В 2 2000 м пыль 9/0
[Ci sp]
+19.0 -3.9 21 +19 +19 1011.8 974.0 +19.0
09 18.01 В 2 10 км пыль 9/0
[Ci sp]
+23.6 -4.9 15 +22 +27 комфорт 1012.8 975.0
12 18.01 В 3 4000 м пыль 9/0
[Ci sp]
+32.3 -9.4 6 +28 +38 жарко 1011.7 974.3
15 18.01 В 1 6000 м пыль 9/0
[Ci sp]
+34.5 -5.8 7 +30 +38 жарко 1009.2 971.9
18 18.01 С 1 6000 м пыль 9/0
[Ci sp]
+31.1 +0.2 14 +28 +28 жарко 1010.3 972.6 +35.1
21 18.01 С 1 6000 м пыль 9/0
[Ci sp]
+25.9 -0.8 17 +24 +24 комфорт 1011.9 974.1

 

Местоположение метеостанции Ouahigouya (Буркина-Фасо): широта 13.57 долгота -2.42 высота над уровнем моря 336 м.

В архиве по умолчанию представлена погода в Ouahigouya за последнюю неделю. Архивные данные за месяц целиком и за предыдущие месяцы, начиная с января 2011 года, Вы можете получить, выбрав интересующий диапазон дат из раскрывающегося списка и нажав кнопку "Ввод!".

Внимание! Время в таблицах - всемирное. Для получения местного времени необходимо прибавить поправку, которая в Ouahigouya равна 0 ч.

Смотрите также архив погоды в соседних городах и на ближайших метеорологических станциях:

Погода в Ouagadougou (Буркина-Фасо) (167 км)
Погода в Dedougou (Буркина-Фасо) (168 км)
Погода в Mopti (Мали) (210 км)
Погода в Boromo (Буркина-Фасо) (210 км)
Погода в San (Мали) (262 км)
Погода в Dori (Буркина-Фасо) (263 км)
Погода в Po (Буркина-Фасо) (302 км)
Погода в Navrongo (Гана) (330 км)
Погода в Bobo-Dioulasso (Буркина-Фасо) (337 км)
Погода в Fada N`Gourma (Буркина-Фасо) (348 км)

Пояснения к столбцам:

Ветер - указаны скорость ветра в м/с - средняя за 10 мин, порывы в срок и между сроками (в фигурных скобках) и направление, откуда дует ветер: С - северный, СВ - северо-восточный, В - восточный, ЮВ - юго-восточный, Ю - южный, ЮЗ - юго-западный, З - западный, СЗ - северо-западный.
Видимость - горизонтальная дальность видимости в метрах или километрах. При видимости от 1 до 10 км при отсутствии осадков обычно наблюдается дымка, при ухудшении видимости до 1 км и менее - туман. В сухую погоду видимость может ухудшаться дымом, пылью или мглою.
Явления - указаны атмосферные явления, наблюдавшиеся в срок или в последний час перед сроком; фигурными скобками обозначены явления, наблюдавшиеся между сроками (за 1-3 часа до срока); квадратными скобками обозначены град или гололедные отложения с указанием их диаметра в мм.
Облачность - указаны через наклонную черту общая и нижняя облачность в баллах и высота нижней границы облаков в метрах; квадратными скобками обозначены формы облаков: Ci - перистые, Cs - перисто-слоистые, Cc - перисто-кучевые, Ac - высококучевые, As - высокослоистые, Sc - слоисто-кучевые, Ns - слоисто-дождевые, Cu - кучевые, Cb - кучево-дождевые. Подробнее классификацию облаков см. в Атласе облаков (PDF).
T - Температура воздуха - температура, измеренная на высоте 2 м над землей.
Td - Температура точки росы - температура, при понижении до которой содержащийся в воздухе водяной пар достигнет насыщения.
f - Относительная влажность воздуха - влажноcть воздуха, измеренная на высоте 2 м над землей.
Te - Эффективная температура - температура, которую ощущает одетый по сезону человек в тени. Характеристика душности погоды. При расчете учитывается влияние влажности воздуха и скорости ветра на теплоощущения человека.
Tes - Эффективная температура на солнце - температура, которую ощущает человек, с поправкой на солнечный нагрев. Характеристика знойности погоды. Зависит от высоты солнца над горизонтом, облачности и скорости ветра. Ночью, в пасмурную погоду, а также при ветре 12 м/с и более поправка равна нулю.
P - Атмосферное давление - приведенное к уровню моря атмосферное давление.
Po - Атмосферное давление - измеренное на уровне метеостанции атмосферное давление.
Tmin - Минимальная температура - минимум температуры воздуха на высоте 2 м над землей.
Tmax - Максимальная температура - максимум температуры воздуха на высоте 2 м над землей.
R - Количество осадков - Количество выпавших осадков за период времени, мм. При наведении курсора мыши на число - период времени, за который выпало указанное количество осадков.
R24 - Количество осадков - Количество выпавших осадков за 24 часа, мм.
S - Снежный покров - Высота снежного покрова, см. При наведении курсора мыши на число - состояние снежного покрова и степень покрытия местности в баллах.